Location: Unspecified
(0.0000°N, 0.0000°E)
Time: 00:32:32
(UTC+00:00)

ATLAS 5 CENTAUR R/B DEB - Pass Details

Date: 05 May 2025
Orbit: 8950 x 34203 km, 12.6° (Epoch: 13 May)

Event Time Altitude Azimuth Distance (km) Brightness Sun altitude
Rises 08:45:51 0° 262° (W) 14,865 ? 40.2°
Reaches altitude 10° 08:56:22 10° 258° (WSW) 13,197 ? 42.6°
Maximum altitude 09:50:17 73° 170° (S) 11,022 ? 54.8°
Drops below altitude 10° 20:48:40 10° 87° (E) 19,224 ? -40.8°
Sets 21:04:36 0° 90° (E) 18,427 ? -44.5°
